Date String (YYYY-MM-DD hh:mm:ss) UTC,Instrument flags,Ambient pressure (hPa),Sample flow (lpm),Bypass flow (lpm),Sample temperature (°C),Ambient temperature (°C),ASC tube jacket temperature (°C),LED temperature (°C),Box temperature (°C),Sample RH (%),Span deviation,Mass concentration (μg/m³),Mass concentration (μg/m³),Mass concentration (μg/m³)
DateTimeUTC,F1_M11,P_M11,Q1_M11,Q2_M11,T1_M11,T2_M11,T3_M11,T4_M11,T5_M11,U1_M11,ZSPAN_M11,X0_M11,X2_M11,X1_M11
2022-03-09 18:00:00,,0821.0,5.00,0.00,23.0,23.2,00.0,32.1,24.8,07.4,0000.0,0002.43,0001.60,0001.31
2022-03-09 18:01:00,,0821.0,5.00,0.00,23.2,23.7,00.0,32.1,25.0,07.3,0000.0,0002.39,0001.60,0001.34
2022-03-09 18:02:00,,0821.0,5.00,0.00,23.2,23.5,00.0,32.1,25.0,07.3,0000.0,0002.42,0001.62,0001.36
2022-03-09 18:03:00,,0821.0,5.00,0.00,23.1,23.1,00.0,32.1,24.9,07.3,0000.0,0002.42,0001.61,0001.36
2022-03-09 18:04:00,,0821.0,5.00,0.00,23.1,22.8,00.0,32.1,24.8,07.3,0000.0,0002.76,0001.63,0001.38
2022-03-09 18:05:00,,0821.0,5.01,0.00,23.0,22.5,00.0,32.1,24.6,07.5,0000.0,0003.01,0001.63,0001.39
2022-03-09 18:06:00,,0821.0,4.98,0.00,23.0,22.3,00.0,32.1,24.5,07.6,0000.0,0002.98,0001.64,0001.40
2022-03-09 18:07:00,,0821.0,5.00,0.00,22.9,22.1,00.0,32.0,24.4,07.6,0000.0,0002.97,0001.65,0001.42
2022-03-09 18:08:00,,0821.0,5.01,0.00,22.8,22.2,00.0,32.0,24.3,07.6,0000.0,0003.29,0001.72,0001.44
2022-03-09 18:09:00,,0821.0,5.00,0.00,22.9,22.9,00.0,32.0,24.6,07.6,0000.0,0003.46,0001.73,0001.45
2022-03-09 18:10:00,,0821.0,5.01,0.00,23.1,23.6,00.0,32.1,24.9,07.4,0000.0,0003.55,0001.74,0001.47
2022-03-09 18:11:00,,0821.0,4.99,0.00,23.2,23.7,00.0,32.1,25.0,07.2,0000.0,0003.52,0001.75,0001.49
2022-03-09 18:12:00,,0821.0,5.01,0.00,23.2,23.4,00.0,32.1,24.9,07.3,0000.0,0003.52,0001.75,0001.50
2022-03-09 18:13:00,,0821.0,4.99,0.00,23.1,23.0,00.0,32.1,24.8,07.3,0000.0,0003.50,0001.75,0001.51
2022-03-09 18:14:00,,0820.9,5.02,0.00,23.0,22.7,00.0,32.1,24.6,07.4,0000.0,0003.40,0001.75,0001.51
2022-03-09 18:15:00,,0820.9,4.99,0.00,22.9,22.4,00.0,32.1,24.5,07.6,0000.0,0003.35,0001.81,0001.52
2022-03-09 18:16:00,,0820.9,5.01,0.00,22.9,22.4,00.0,32.0,24.4,07.7,0000.0,0003.16,0001.84,0001.52
2022-03-09 18:17:00,,0821.0,4.98,0.00,23.0,23.0,00.0,32.1,24.7,07.6,0000.0,0003.13,0001.86,0001.53
2022-03-09 18:18:00,,0821.0,5.01,0.00,23.1,23.8,00.0,32.1,25.0,07.5,0000.0,0003.18,0001.87,0001.53
2022-03-09 18:19:00,,0820.9,4.99,0.00,23.3,23.9,00.0,32.1,25.1,07.3,0000.0,0002.95,0001.85,0001.54
2022-03-09 18:20:00,,0820.8,5.00,0.00,23.2,23.5,00.0,32.1,25.0,07.2,0000.0,0002.85,0001.88,0001.58
2022-03-09 18:21:00,,0820.8,5.00,0.00,23.2,23.2,00.0,32.1,24.8,07.3,0000.0,0002.85,0001.94,0001.61
2022-03-09 18:22:00,,0820.8,5.00,0.00,23.1,22.8,00.0,32.1,24.6,07.2,0000.0,0003.11,0002.03,0001.63
2022-03-09 18:23:00,,0820.8,5.01,0.00,23.0,22.5,00.0,32.1,24.5,07.4,0000.0,0003.17,0002.05,0001.64
2022-03-09 18:24:00,,0821.0,4.99,0.00,22.9,22.3,00.0,32.1,24.5,07.7,0000.0,0003.12,0002.06,0001.66
2022-03-09 18:25:00,,0821.0,4.99,0.00,22.9,22.3,00.0,32.1,24.4,07.9,0000.0,0003.25,0002.07,0001.66
2022-03-09 18:26:00,,0821.0,5.00,0.00,23.0,22.9,00.0,32.1,24.7,07.9,0000.0,0003.21,0002.04,0001.64
2022-03-09 18:27:00,,0821.0,5.01,0.00,23.1,23.6,00.0,32.1,24.9,07.8,0000.0,0002.97,0001.99,0001.63
2022-03-09 18:28:00,,0820.9,5.00,0.00,23.2,23.3,00.0,32.1,24.9,07.6,0000.0,0003.20,0002.00,0001.62
2022-03-09 18:29:00,,0820.9,5.00,0.00,23.1,23.0,00.0,32.1,24.9,07.6,0000.0,0003.36,0001.99,0001.61
2022-03-09 18:30:00,,0820.9,4.99,0.00,23.1,22.8,00.0,32.1,24.7,07.6,0000.0,0003.25,0001.94,0001.59
2022-03-09 18:31:00,,0820.9,5.01,0.00,23.0,22.5,00.0,32.1,24.6,07.6,0000.0,0003.21,0001.90,0001.55
2022-03-09 18:32:00,,0820.9,5.00,0.00,22.9,22.3,00.0,32.1,24.4,07.5,0000.0,0003.24,0001.85,0001.50
2022-03-09 18:33:00,,0821.0,4.99,0.00,22.9,22.6,00.0,32.1,24.5,07.4,0000.0,0003.22,0001.80,0001.47
2022-03-09 18:34:00,,0821.0,4.99,0.00,23.1,23.4,00.0,32.1,24.8,07.4,0000.0,0003.13,0001.78,0001.44
2022-03-09 18:35:00,,0821.0,5.00,0.00,23.2,23.9,00.0,32.1,25.0,07.4,0000.0,0003.21,0001.78,0001.40
2022-03-09 18:36:00,,0821.0,5.01,0.00,23.2,23.6,00.0,32.2,25.0,07.3,0000.0,0003.16,0001.78,0001.38
2022-03-09 18:37:00,,0821.0,5.00,0.00,23.2,23.2,00.0,32.1,24.9,07.3,0000.0,0003.19,0001.79,0001.40
2022-03-09 18:38:00,,0821.0,4.99,0.00,23.1,22.9,00.0,32.1,24.7,07.4,0000.0,0003.30,0001.80,0001.40
2022-03-09 18:39:00,,0820.9,5.00,0.00,23.0,22.6,00.0,32.1,24.6,07.5,0000.0,0004.30,0001.77,0001.40
2022-03-09 18:40:00,,0821.0,5.00,0.00,23.0,22.5,00.0,32.1,24.6,07.6,0000.0,0004.50,0001.75,0001.42
2022-03-09 18:41:00,,0820.9,5.00,0.00,23.1,23.1,00.0,32.1,24.8,07.5,0000.0,0004.59,0001.79,0001.44
2022-03-09 18:42:00,,0820.9,5.01,0.00,23.2,23.8,00.0,32.2,25.0,07.4,0000.0,0005.05,0001.83,0001.45
2022-03-09 18:43:00,,0820.9,5.00,0.00,23.3,23.9,00.0,32.2,25.1,07.2,0000.0,0005.32,0001.84,0001.46
2022-03-09 18:44:00,,0820.9,5.01,0.00,23.3,23.5,00.0,32.2,25.0,07.1,0000.0,0005.14,0001.81,0001.46
2022-03-09 18:45:00,,0820.8,4.99,0.00,23.2,23.1,00.0,32.2,24.8,07.0,0000.0,0005.06,0001.78,0001.47
2022-03-09 18:46:00,,0820.8,5.00,0.00,23.1,22.7,00.0,32.2,24.6,06.9,0000.0,0005.04,0001.76,0001.47
2022-03-09 18:47:00,,0820.9,5.00,0.00,23.1,23.0,00.0,32.2,24.7,06.9,0000.0,0005.31,0001.77,0001.48
2022-03-09 18:48:00,,0820.9,5.00,0.00,23.2,23.7,00.0,32.2,25.0,07.0,0000.0,0005.92,0001.78,0001.50
2022-03-09 18:49:00,,0820.9,4.99,0.00,23.4,24.1,00.0,32.3,25.2,06.9,0000.0,0006.18,0001.79,0001.51
2022-03-09 18:50:00,,0820.8,5.00,0.00,23.4,23.7,00.0,32.3,25.1,06.9,0000.0,0004.90,0001.82,0001.54
2022-03-09 18:51:00,,0820.8,5.00,0.00,23.3,23.3,00.0,32.3,25.0,07.0,0000.0,0004.59,0001.85,0001.56
2022-03-09 18:52:00,,0820.8,5.00,0.00,23.2,22.9,00.0,32.2,24.8,07.1,0000.0,0004.59,0001.86,0001.57
2022-03-09 18:53:00,,0820.9,5.00,0.00,23.1,22.7,00.0,32.2,24.7,07.0,0000.0,0004.69,0001.90,0001.59
2022-03-09 18:54:00,,0821.0,5.00,0.00,23.2,23.1,00.0,32.3,24.8,06.8,0000.0,0004.73,0001.99,0001.62
2022-03-09 18:55:00,,0821.0,4.99,0.00,23.3,23.8,00.0,32.3,25.1,06.8,0000.0,0004.77,0002.03,0001.64
2022-03-09 18:56:00,,0821.0,5.00,0.00,23.5,24.2,00.0,32.3,25.3,06.8,0000.0,0004.93,0002.08,0001.67
2022-03-09 18:57:00,,0821.0,5.01,0.00,23.5,23.8,00.0,32.3,25.2,06.8,0000.0,0004.96,0002.12,0001.69
2022-03-09 18:58:00,,0821.1,5.00,0.00,23.4,23.4,00.0,32.3,25.0,06.7,0000.0,0004.72,0002.14,0001.71
2022-03-09 18:59:00,,0821.1,4.99,0.00,23.3,23.0,00.0,32.3,24.9,06.7,0000.0,0004.19,0002.16,0001.74
